Flag for Germany Weather past 2 weeks in Jülich, North Rhine-Westphalia, Germany

Now
54 °F

Overcast.


Feels Like: 54 °F
Forecast: 47 / 69 °F
Wind: 2 mph from West

Location: Noervenich

Current Time: May 23, 2015 at 8:40:15 AM

Latest Report: May 23, 2015 at 8:00 AM


Visibility: 9 mi

Pressure: 30.19 "Hg

Humidity: 81%

Dew point: 48 °F

Location of JülichLocation

Historic Weather in Jülich — Graph

°F

Jülich temperature yesterday

Maximum temperature yesterday: 67 °F (at 6:00 PM)
Minimum temperature yesterday: 47 °F (at 6:00 AM)
Average temperature yesterday: 58 °F

Past Weeks' High & Low Weather Summary

 TemperatureHumidityPressure
High80 °F (May 11, 4:00 PM)95% (May 15, 12:00 AM)30.35 "Hg (May 15, 12:00 AM)
Low38 °F (May 21, 6:00 AM)31% (May 11, 4:00 PM)29.65 "Hg (May 18, 8:00 PM)
Average56 °F67%30.08 "Hg
* Reported May 8 7:00 AM — May 23 7:00 AM, Jülich, Weather by CustomWeather, © 2015

Note: Actual official high and low records may vary slightly from our data, if they occured in-between our weather recording intervals... More about our weather records

Advertising

Jülich weather history for previous 24 hours

 ConditionsComfort  
Time TempWeatherWind HumidityBarometerVisibility
7:00 AM
Sat, May 23
52 °FOvercast.1 mph81%30.19 "Hg9 mi
6:00 AM50 °FPassing clouds.2 mph82%30.18 "Hg2 mi
3:00 AM51 °FPassing clouds.2 mph85%30.20 "Hg16 mi
2:00 AM54 °FPassing clouds.2 mph77%30.21 "Hg19 mi
1:00 AM53 °FPassing clouds.2 mph74%30.22 "Hg19 mi
12:00 AM52 °FPassing clouds.1 mph75%30.22 "Hg19 mi
10:00 PM
Fri, May 22
57 °FPassing clouds.No wind62%30.21 "Hg19 mi
9:00 PM63 °FPartly sunny.1 mph49%30.20 "Hg19 mi
7:00 PM66 °FMild.2 mph40%30.20 "Hg8 mi
6:00 PM67 °FMild.1 mph39%30.21 "Hg7 mi
4:00 PM66 °FMild.N/A40%30.24 "Hg6 mi
3:00 PM65 °FMild.1 mph42%30.26 "Hg8 mi
2:00 PM64 °FMild.N/A43%30.28 "Hg8 mi
1:00 PM62 °FPassing clouds.8 mph48%30.30 "Hg4 mi
12:00 PM61 °FOvercast.1 mph51%30.32 "Hg19 mi
10:00 AM58 °FOvercast.N/A58%30.34 "Hg19 mi
9:00 AM56 °FOvercast.1 mph62%30.34 "Hg16 mi
Weather by CustomWeather, © 2015

See weather overviewHow to use our weather pages